DELTA 1 DEB, 29186

Orbit data source: Space-Track

DELTA 1 DEB, 29186 is space debris in LEO originally from a launch on Thu, 11 Jan 1968 UTC launched from the Air Force Western Test Range (AFWTR). Debris objects in space refer to the collection of defunct objects orbiting the Earth. Examples of debris include non-operational satellites, rocket bodies, and fragments generated from explosions, collisions, or faulty payload assembly.

Loading next visibility...
Identifier
29186, 1968-002K
Orbit
LEO
Country
Flag of USUS
Related business
Manufacturer
Unknown
Mission
Spacecraft
Bus & Motor
Unknown
Mass
Unknown
Launch date (UTC)
1968-01-11 (58 years ago)
Launch vehicle
Unknown
Launch site
Air Force Western Test Range (AFWTR)
Object type
Payload
Rocket body
Debris
Shape & HBR
Unknown shape, 0.1 m
Radar Cross Section
Small (<0.1 m²)

Expand to show TLE details & history
Last TLE update: 3 weeks ago

TLE from 3 weeks ago
0 DELTA 1 DEB
1 29186U 68002K   26014.16552378  .00000146  00000-0  66202-3 0  9992
2 29186 105.7946 131.6661 0304898  53.3122  64.7520 12.92979037998584
Epoch: 2026-01-14T03:58Z
TLE epoch observation values (Epoch: 2026-01-14T03:58:21.254Z)
Latitude
55.43019°
Longitude
162.54593°
Altitude
1,204.754 km
Speed
7.301 km/s
True Right ascension
22h 23m 05s
True Declination
55° 16' 44"
Sunlit
Object was in daylight at epoch
Visualization orbit readout
Latitude
Unknown
Longitude
Unknown
Altitude
Unknown
Speed
Unknown
Apparent Right ascension
Unknown
Apparent Declination
Unknown
Sunlit
N/A
Visualization observer readout
Local Sidereal Time
01:40:50
Azimuth
Unknown
Elevation
Unknown
Doppler factor
Unknown
Orbital elements
Apogee altitude
1,521.215 km
Perigee altitude
1,053.768 km
Semi-major axis
7,665.629 km
Eccentricity
0.03049
Inclination
105.7946°
RAAN
131.6661°
Arg. of periapsis
53.3122°
True anomaly
67.9626°
Mean anomaly
64.752°
Eccentric anomaly
66.35224°
Mean motion
3.23386 °/min
Orbital period
111.32 mins
BSTAR
0.00066202
Loading maneuver chart data...
Computing Atmospheric mass density...
Loading historical data...
Loading historical data...
Loading historical data...
Loading historical data...
Loading historical data...
Loading historical data...
Loading historical data...

Documentation

Showing up to 5 results
|